Location: Byszew
(52.1813°N, 19.2693°E)
Time: 11:46:37
(UTC+00:00)

SPROUT - Pass Details

Date: 04 July 2022
Orbit: 588 x 598 km, 97.9° (Epoch: 18 August)

Event Time Altitude Azimuth Distance (km) Brightness Sun altitude
Exits shadow 21:43:46 - 106° (ESE) 2,459 ? -13.7°
Reaches altitude 10° 21:45:42 10° 88° (E) 1,922 ? -13.8°
Maximum altitude 21:47:56 14° 56° (NE) 1,656 ? -13.9°
Drops below altitude 10° 21:50:12 10° 23° (NNE) 1,932 ? -14.0°
Sets 21:53:13 0° 359° (N) 2,841 ? -14.1°
